призрачный форум

www.prizrak.ws

Информация о пользователе

Привет, Гость! Войдите или зарегистрируйтесь.


Вы здесь » www.prizrak.ws » Software, ОС, программное обеспечение..


Software, ОС, программное обеспечение..

Тем 17901 страница 17950 из 159432

Тема Ответов Просмотров Последнее сообщение
0 0 2020-08-12 06:39:43  Xue Wang
0 4 2020-08-12 06:33:19  Xue Wang
17903 IES Oersted v9.2  Xue Wang
0 4 2020-08-12 06:31:18  Xue Wang
17904 SPT wellflo v8.3  Xue Wang
0 8 2020-08-12 06:21:00  Xue Wang
17905 Cadence MMSIM v15.10.385  Xue Wang
0 0 2020-08-12 06:15:32  Xue Wang
17906 IES Magneto v9.2  Xue Wang
0 2 2020-08-12 06:12:17  Xue Wang
17907 SPSQC v7.5  Xue Wang
0 4 2020-08-12 06:03:01  Xue Wang
17908 Cadence MDV 18.03 Linux  Xue Wang
0 4 2020-08-12 05:57:43  Xue Wang
17909 IES Faraday v9.2 x64  Xue Wang
0 0 2020-08-12 05:53:02  Xue Wang
17910 SPEOS v2018.1.0 x64  Xue Wang
0 0 2020-08-12 05:44:05  Xue Wang
17911 Cadaplus APLUS v18.034  Xue Wang
0 4 2020-08-12 05:39:25  Xue Wang
17912 IES Electro v9.2  Xue Wang
0 4 2020-08-12 05:31:41  Xue Wang
0 4 2020-08-12 05:25:04  Xue Wang
17914 CadLink SignLab v10.0  Xue Wang
0 0 2020-08-12 05:21:08  Xue Wang
17915 IDEA.StatiCa.v10.0.24 x64  Xue Wang
0 0 2020-08-12 05:13:37  Xue Wang
0 0 2020-08-12 05:05:01  Xue Wang
17917 CablEquity v2013  Xue Wang
0 0 2020-08-12 05:02:57  Xue Wang
17918 ICADSX.Mechanical v6L1  Xue Wang
0 0 2020-08-12 04:54:11  Xue Wang
17919 SPACE-E.v5.4  Xue Wang
0 0 2020-08-12 04:45:48  Xue Wang
17920 CYMGRD v6.51  Xue Wang
0 0 2020-08-12 04:44:09  Xue Wang
17921 ICAD MX V7L1  Xue Wang
0 0 2020-08-12 04:35:00  Xue Wang
17922 SOFTWARE ENGINEERING  Xue Wang
0 4 2020-08-12 04:27:17  Xue Wang
17923 CYMCAP 7.2  Xue Wang
0 0 2020-08-12 04:27:02  Xue Wang
17924 IBM.Rational.DOORs v9.2  Xue Wang
0 0 2020-08-12 04:17:42  Xue Wang
0 4 2020-08-12 04:09:58  Xue Wang
17926 CX Supervisor v3.24  Xue Wang
0 4 2020-08-12 04:08:48  Xue Wang
0 4 2020-08-12 03:59:05  Xue Wang
0 0 2020-08-12 03:52:44  Xue Wang
0 3 2020-08-12 03:52:29  Xue Wang
0 0 2020-08-12 03:41:12  Xue Wang
17931 CUP Tower.V2.0  Xue Wang
0 0 2020-08-12 03:36:11  Xue Wang
17932 SNT EXata Developer v2.2  Xue Wang
0 7 2020-08-12 03:35:45  Xue Wang
0 0 2020-08-12 03:23:25  Xue Wang
17934 CRYSTAL v2018.3  Xue Wang
0 0 2020-08-12 03:20:51  Xue Wang
17935 SMT Kingdom v2019  Xue Wang
0 0 2020-08-12 03:18:40  Xue Wang
0 5 2020-08-12 03:07:07  Xue Wang
17937 CRYSTAL PROD v2018  Xue Wang
0 0 2020-08-12 03:04:52  Xue Wang
17938 SKM Power Tools v7.0.3.7  Xue Wang
0 0 2020-08-12 03:01:17  Xue Wang
0 0 2020-08-12 02:49:52  Xue Wang
17940 CPStudio  Xue Wang
0 4 2020-08-12 02:49:34  Xue Wang
17941 SIMSCI.PROII.V10.2  Xue Wang
0 0 2020-08-12 02:45:43  Xue Wang
17942 CONVERGE v2.3.0  Xue Wang
0 0 2020-08-12 02:34:24  Xue Wang
17943 I-GeoSeisV2.0  Xue Wang
0 0 2020-08-12 02:33:51  Xue Wang
17944 SIMSCI.PROII v10.1.1 x64  Xue Wang
0 2 2020-08-12 02:29:38  Xue Wang
17945 CONVAL v10.2  Xue Wang
0 4 2020-08-12 02:19:28  Xue Wang
17946 Hydrostar ariane7  Xue Wang
0 4 2020-08-12 02:17:40  Xue Wang
17947 SES CDEGS v15.3  Xue Wang
0 1 2020-08-12 02:13:39  Xue Wang
0 4 2020-08-12 02:03:48  Xue Wang
17949 Hydromantis.GPS-X.v8.0.1  Xue Wang
0 0 2020-08-12 02:01:17  Xue Wang
17950 SCIGRESS FJ v2.5  Xue Wang
0 2 2020-08-12 01:57:49  Xue Wang

Вы здесь » www.prizrak.ws » Software, ОС, программное обеспечение..